• In Romania
  • List of Countries
  • For 7 days
  • Water Temperature
  • Satellite Maps
  • Weather Map
  • Weather Widgets
  • user-avatar
    Login

    Hourly Weather Prutz

    Today, 21 October, Saturday

    Time Temperature Precipitation Wind Pressure Humidity
    00:00 +7°C° 0 mm 1 mps 635 mmHg 68%
    01:00 +7°C° 0 mm 1 mps 634 mmHg 63%
    02:00 +7°C° 0 mm 1 mps 634 mmHg 64%
    03:00 +7°C° 0 mm 1 mps 634 mmHg 65%
    04:00 +6°C° 0 mm 1 mps 634 mmHg 66%
    05:00 +6°C° 0 mm 1 mps 634 mmHg 67%
    06:00 +6°C° 0 mm 1 mps 634 mmHg 67%
    07:00 +6°C° 0 mm 1 mps 634 mmHg 68%
    08:00 +9°C° 0 mm 1 mps 635 mmHg 63%
    09:00 +11°C° 0 mm 1 mps 636 mmHg 58%
    10:00 +13°C° 0 mm 0 mps 637 mmHg 52%
    11:00 +14°C° 0 mm 1 mps 637 mmHg 51%
    12:00 +15°C° 0 mm 1 mps 637 mmHg 50%
    13:00 +16°C° 0 mm 1 mps 637 mmHg 49%
    14:00 +15°C° 0 mm 1 mps 636 mmHg 53%
    15:00 +14°C° 0 mm 1 mps 636 mmHg 58%
    16:00 +14°C° 0 mm 1 mps 635 mmHg 63%
    17:00 +12°C° 0 mm 1 mps 635 mmHg 71%
    18:00 +10°C° 0 mm 1 mps 634 mmHg 78%
    19:00 +8°C° 0 mm 1 mps 634 mmHg 86%
    20:00 +8°C° 0 mm 1 mps 634 mmHg 87%
    21:00 +7°C° 0 mm 1 mps 634 mmHg 88%
    22:00 +7°C° 0 mm 1 mps 634 mmHg 89%
    23:00 +7°C° 0.7 mm 1 mps 634 mmHg 91%

    Tomorrow, 22 October, Sunday

    Time Temperature Precipitation Wind Pressure Humidity
    00:00 +6°C° 0.7 mm 1 mps 634 mmHg 92%
    01:00 +6°C° 0.7 mm 1 mps 634 mmHg 94%
    02:00 +6°C° 0.8 mm 1 mps 633 mmHg 95%
    03:00 +6°C° 0.8 mm 1 mps 633 mmHg 95%
    04:00 +6°C° 0.8 mm 1 mps 633 mmHg 96%
    05:00 +4°C° 1.1 mm 2 mps 633 mmHg 96%
    06:00 +4°C° 1.1 mm 2 mps 633 mmHg 95%
    07:00 +4°C° 1.1 mm 2 mps 633 mmHg 95%
    08:00 +4°C° 1.3 mm 2 mps 632 mmHg 94%
    09:00 +4°C° 1.3 mm 2 mps 632 mmHg 93%
    10:00 +4°C° 1.3 mm 2 mps 632 mmHg 92%
    11:00 +3°C° 1.3 mm 2 mps 632 mmHg 92%
    12:00 +2°C° 1.3 mm 3 mps 631 mmHg 92%
    13:00 +2°C° 1.3 mm 3 mps 631 mmHg 91%
    14:00 +1°C° 1 mm 3 mps 631 mmHg 92%
    15:00 +1°C° 1 mm 3 mps 631 mmHg 92%
    16:00 +1°C° 1 mm 3 mps 631 mmHg 92%
    17:00 0°C° 0.5 mm 3 mps 631 mmHg 93%
    18:00 0°C° 0.5 mm 3 mps 631 mmHg 93%
    19:00 -1°C° 0.5 mm 3 mps 631 mmHg 94%
    20:00 -1°C° 0.4 mm 2 mps 631 mmHg 94%
    21:00 -1°C° 0.4 mm 2 mps 632 mmHg 94%
    22:00 -1°C° 0.4 mm 2 mps 632 mmHg 94%
    23:00 -1°C° 0.5 mm 2 mps 632 mmHg 94%

    Day after tomorrow, 23 October, Monday

    Time Temperature Precipitation Wind Pressure Humidity
    00:00 -2°C° 0.5 mm 2 mps 632 mmHg 94%
    01:00 -2°C° 0.5 mm 2 mps 632 mmHg 94%
    02:00 -2°C° 0.3 mm 2 mps 632 mmHg 94%
    03:00 -2°C° 0.3 mm 2 mps 632 mmHg 95%
    04:00 -2°C° 0.3 mm 2 mps 631 mmHg 95%
    05:00 -2°C° 0.6 mm 2 mps 632 mmHg 95%
    06:00 -2°C° 0.6 mm 2 mps 632 mmHg 94%
    07:00 -2°C° 0.6 mm 2 mps 632 mmHg 94%
    08:00 -1°C° 0.8 mm 2 mps 632 mmHg 93%
    09:00 -1°C° 0.8 mm 2 mps 633 mmHg 91%
    10:00 +1°C° 0.8 mm 2 mps 633 mmHg 90%
    11:00 0°C° 0.8 mm 3 mps 633 mmHg 89%
    12:00 0°C° 0.8 mm 3 mps 633 mmHg 89%
    13:00 +1°C° 0.8 mm 3 mps 633 mmHg 88%
    14:00 0°C° 0.7 mm 3 mps 633 mmHg 89%
    15:00 0°C° 0.7 mm 3 mps 633 mmHg 90%
    16:00 +1°C° 0.7 mm 2 mps 633 mmHg 91%
    17:00 +1°C° 0.8 mm 2 mps 634 mmHg 92%
    18:00 +1°C° 0.8 mm 2 mps 634 mmHg 93%
    19:00 -1°C° 0.8 mm 2 mps 634 mmHg 94%
    20:00 -1°C° 0.7 mm 2 mps 635 mmHg 94%
    21:00 -1°C° 0.7 mm 2 mps 635 mmHg 94%
    22:00 -1°C° 0.7 mm 2 mps 635 mmHg 94%
    23:00 -1°C° 0.4 mm 2 mps 635 mmHg 95%

    24 October, Tuesday

    Time Temperature Precipitation Wind Pressure Humidity
    00:00 -1°C° 0.4 mm 2 mps 635 mmHg 95%
    01:00 -1°C° 0.4 mm 2 mps 635 mmHg 95%
    02:00 -1°C° 0.2 mm 2 mps 635 mmHg 95%
    03:00 -2°C° 0.2 mm 2 mps 635 mmHg 94%
    04:00 -2°C° 0.2 mm 2 mps 635 mmHg 94%
    05:00 -1°C° 0.3 mm 2 mps 635 mmHg 94%
    06:00 -1°C° 0.3 mm 2 mps 635 mmHg 94%
    07:00 -1°C° 0.3 mm 2 mps 636 mmHg 94%
    08:00 +1°C° 0.2 mm 2 mps 636 mmHg 93%
    09:00 +2°C° 0.2 mm 2 mps 636 mmHg 91%
    10:00 +3°C° 0.2 mm 2 mps 637 mmHg 90%
    11:00 +4°C° 0 mm 2 mps 637 mmHg 90%
    12:00 +4°C° 0 mm 2 mps 637 mmHg 89%
    13:00 +4°C° 0 mm 2 mps 637 mmHg 89%
    14:00 +4°C° 0 mm 2 mps 637 mmHg 89%
    15:00 +4°C° 0 mm 2 mps 637 mmHg 90%
    16:00 +4°C° 0 mm 2 mps 637 mmHg 90%
    17:00 +2°C° 0 mm 2 mps 637 mmHg 91%
    18:00 -1°C° 0 mm 2 mps 637 mmHg 92%
    19:00 -3°C° 0 mm 2 mps 637 mmHg 93%
    20:00 -3°C° 0 mm 2 mps 637 mmHg 88%
    21:00 -3°C° 0 mm 2 mps 637 mmHg 84%
    22:00 -3°C° 0 mm 2 mps 637 mmHg 80%
    23:00 -3°C° 0 mm 2 mps 637 mmHg 76%

    25 October, Wednesday

    Time Temperature Precipitation Wind Pressure Humidity
    00:00 -3°C° 0 mm 2 mps 637 mmHg 72%
    01:00 -3°C° 0 mm 2 mps 637 mmHg 68%
    02:00 -3°C° 0 mm 2 mps 637 mmHg 65%
    03:00 -3°C° 0 mm 2 mps 637 mmHg 62%
    04:00 -2°C° 0 mm 2 mps 637 mmHg 59%
    05:00 -2°C° 0 mm 2 mps 637 mmHg 58%
    06:00 -2°C° 0 mm 2 mps 637 mmHg 56%
    07:00 -2°C° 0 mm 2 mps 637 mmHg 55%
    08:00 +2°C° 0 mm 1 mps 638 mmHg 62%
    09:00 +5°C° 0 mm 1 mps 639 mmHg 68%
    10:00 +7°C° 0 mm 1 mps 639 mmHg 75%
    11:00 +8°C° 0 mm 1 mps 639 mmHg 76%
    12:00 +9°C° 0 mm 1 mps 639 mmHg 77%
    13:00 +9°C° 0 mm 1 mps 639 mmHg 78%
    14:00 +9°C° 0 mm 1 mps 639 mmHg 78%
    15:00 +8°C° 0 mm 1 mps 639 mmHg 78%
    16:00 +7°C° 0 mm 1 mps 639 mmHg 78%
    17:00 +6°C° 0 mm 1 mps 639 mmHg 74%
    18:00 +4°C° 0 mm 1 mps 638 mmHg 71%
    19:00 +3°C° 0 mm 1 mps 638 mmHg 67%
    20:00 +3°C° 0 mm 1 mps 638 mmHg 64%
    21:00 +3°C° 0 mm 1 mps 639 mmHg 62%
    22:00 +3°C° 0 mm 1 mps 639 mmHg 60%
    23:00 +3°C° 0 mm 1 mps 639 mmHg 59%

    26 October, Thursday

    Time Temperature Precipitation Wind Pressure Humidity
    00:00 +3°C° 0 mm 1 mps 639 mmHg 59%
    01:00 +3°C° 0 mm 1 mps 639 mmHg 58%
    02:00 +3°C° 0 mm 1 mps 639 mmHg 59%
    03:00 +3°C° 0 mm 1 mps 639 mmHg 60%
    04:00 +3°C° 0 mm 1 mps 639 mmHg 60%
    05:00 +3°C° 0 mm 1 mps 639 mmHg 61%
    06:00 +3°C° 0 mm 1 mps 639 mmHg 61%
    07:00 +3°C° 0 mm 1 mps 639 mmHg 62%
    08:00 +5°C° 0 mm 1 mps 640 mmHg 67%
    09:00 +7°C° 0 mm 1 mps 641 mmHg 72%
    10:00 +9°C° 0 mm 1 mps 641 mmHg 76%
    11:00 +10°C° 0 mm 1 mps 641 mmHg 76%
    12:00 +11°C° 0 mm 1 mps 641 mmHg 76%
    13:00 +12°C° 0 mm 1 mps 642 mmHg 76%
    14:00 +11°C° 0 mm 1 mps 641 mmHg 76%
    15:00 +10°C° 0 mm 1 mps 641 mmHg 76%
    16:00 +9°C° 0 mm 1 mps 641 mmHg 76%
    17:00 +8°C° 0 mm 1 mps 641 mmHg 73%
    18:00 +6°C° 0 mm 1 mps 640 mmHg 70%
    19:00 +4°C° 0 mm 1 mps 640 mmHg 66%
    20:00 +4°C° 0 mm 1 mps 640 mmHg 62%
    21:00 +4°C° 0 mm 1 mps 641 mmHg 58%
    22:00 +4°C° 0 mm 1 mps 641 mmHg 53%
    23:00 +4°C° 0 mm 1 mps 641 mmHg 51%
    Show more